Flag for Germany Weather past 2 weeks in Verden (Aller), Lower Saxony, Germany

Now
36 °F

Passing clouds.


Feels Like: 24 °F
Forecast: 32 / 36 °F
Wind: 22 mph from Southwest

Location: Bremen Airport

Current Time: Jan 29, 2015 at 7:21:42 AM

Latest Report: Jan 29, 2015 at 6:50 AM


Visibility: N/A

Pressure: 29.12 "Hg

Humidity: 81%

Dew point: 30 °F

Location of Verden (Aller)Location

Historic Weather in Verden (Aller) — Graph

°F

Verden (Aller) temperature yesterday

Maximum temperature yesterday: 43 °F (at 1:20 PM)
Minimum temperature yesterday: 36 °F (at 9:50 PM)
Average temperature yesterday: 40 °F

Past Weeks' High & Low Weather Summary

 TemperatureHumidityPressure
High50 °F (Jan 15, 12:50 PM)100% (Jan 14, 5:20 PM)30.33 "Hg (Jan 14, 5:20 PM)
Low21 °F (Jan 21, 7:20 AM)70% (Jan 17, 12:50 PM)29.15 "Hg (Jan 29, 5:50 AM)
Average35 °F91%29.91 "Hg
* Reported Jan 14 6:20 AM — Jan 29 6:20 AM, Verden (Aller), Weather by CustomWeather, © 2014

Note: Actual official high and low records may vary slightly from our data, if they occured in-between our weather recording intervals... More about our weather records

Advertising

Verden (Aller) weather history for previous 24 hours

 ConditionsComfort  
Time TempWeatherWind HumidityBarometerVisibility
6:20 AM
Jan 29
36 °FPassing clouds.20 mph81%29.15 "HgN/A
5:50 AM36 °FPassing clouds.18 mph81%29.15 "HgN/A
5:20 AM36 °FPassing clouds.20 mph81%29.18 "HgN/A
4:50 AM36 °FPassing clouds.16 mph81%29.18 "HgN/A
4:20 AM36 °FPassing clouds.17 mph81%29.21 "HgN/A
3:50 AM36 °FPassing clouds.16 mph87%29.21 "HgN/A
3:20 AM36 °FPassing clouds.17 mph81%29.21 "HgN/A
2:50 AM36 °FPassing clouds.15 mph87%29.24 "HgN/A
2:20 AM36 °FSprinkles. Passing clouds.16 mph87%29.24 "HgN/A
1:50 AM36 °FPassing clouds.16 mph87%29.24 "HgN/A
1:20 AM36 °FPartly cloudy.28 mph87%29.24 "HgN/A
12:50 AM36 °FPassing clouds.20 mph93%29.24 "HgN/A
12:20 AM36 °FSprinkles. Passing clouds.22 mph93%29.24 "HgN/A
11:50 PM
Jan 28
37 °FSprinkles. Passing clouds.20 mph87%29.24 "HgN/A
11:20 PM36 °FSprinkles. Passing clouds.23 mph93%29.24 "HgN/A
10:20 PM36 °FPassing clouds.20 mph87%29.24 "HgN/A
9:50 PM36 °FPassing clouds.18 mph87%29.24 "HgN/A
9:20 PM37 °FPassing clouds.18 mph87%29.24 "HgN/A
8:50 PM37 °FPartly cloudy.20 mph87%29.24 "HgN/A
8:20 PM37 °FSprinkles. Passing clouds.24 mph93%29.24 "HgN/A
7:50 PM37 °FPassing clouds.16 mph93%29.24 "HgN/A
7:20 PM39 °FPassing clouds.18 mph93%29.24 "HgN/A
6:50 PM41 °FPassing clouds.23 mph87%29.24 "HgN/A
6:20 PM41 °FPassing clouds.21 mph87%29.24 "Hg4 mi
5:50 PM41 °FRain. Passing clouds.22 mph87%29.24 "HgN/A
5:20 PM39 °FRain. Passing clouds.22 mph93%29.27 "Hg4 mi
4:50 PM41 °FRain. Partly sunny.21 mph87%29.30 "Hg3 mi
4:20 PM41 °FLight rain. Partly sunny.22 mph87%29.33 "Hg3 mi
3:50 PM41 °FLight rain. Partly sunny.23 mph87%29.36 "Hg4 mi
3:20 PM43 °FPartly sunny.23 mph81%29.36 "HgN/A
2:50 PM43 °FPartly sunny.21 mph81%29.42 "HgN/A
2:20 PM43 °FPartly sunny.22 mph81%29.45 "HgN/A
1:50 PM43 °FPartly sunny.18 mph81%29.50 "HgN/A
1:20 PM43 °FPartly sunny.17 mph81%29.53 "HgN/A
12:50 PM41 °FPartly sunny.20 mph87%29.56 "HgN/A
12:20 PM41 °FPartly sunny.20 mph87%29.59 "HgN/A
11:50 AM41 °FPartly sunny.17 mph87%29.62 "HgN/A
11:20 AM41 °FPartly sunny.15 mph87%29.68 "HgN/A
10:50 AM41 °FPartly sunny.17 mph87%29.68 "Hg5 mi
10:20 AM41 °FPartly sunny.17 mph87%29.71 "Hg4 mi
9:50 AM41 °FPartly sunny.14 mph87%29.74 "Hg4 mi
9:20 AM41 °FFog.14 mph87%29.77 "Hg3 mi
8:50 AM39 °FFog.14 mph93%29.80 "Hg3 mi
8:20 AM39 °FDrizzle. Partly sunny.12 mph93%29.83 "Hg3 mi
7:50 AM39 °FLight rain. Passing clouds.13 mph93%29.86 "Hg4 mi
7:20 AM39 °FPassing clouds.13 mph93%29.86 "Hg5 mi
Weather by CustomWeather, © 2014

See weather overviewHow to use our weather pages